Change the Weather History Date:

Wednesday, October 30, 2013

  Actual Average Record
Temperature  
Mean Temperature 55 °F 52 °F  
Max Temperature 65 °F 63 °F 83 °F (1946)
Min Temperature 44 °F 41 °F 26 °F (1965)
Degree Days  
Heating Degree Days 10 13  
Month to date heating degree days 233 280  
Since 1 July heating degree days 285 333  
Cooling Degree Days 0 0  
Month to date cooling degree days 51 15  
Year to date cooling degree days 1339 1160  
Growing Degree Days 4 (Base 50)    
Moisture  
Dew Point 51 °F    
Average Humidity 84    
Maximum Humidity 100    
Minimum Humidity 67    
Precipitation  
Precipitation 0.11 in 0.11 in 0.97 in (1898)
Month to date precipitation 7.61 3.22  
Year to date precipitation 34.83 35.10  
Snow  
Snow 0.00 in 0.00 in 2.40 in (1925)
Month to date snowfall 0.0 0.0  
Since 1 July snowfall 0.0 0.0  
Snow Depth 0.00 in    
Sea Level Pressure  
Sea Level Pressure 30.24 in    
Wind  
Wind Speed 2 mph (SE)    
Max Wind Speed 12 mph    
Max Gust Speed 16 mph    
Visibility 6 miles    
Events Rain    
T = Trace of Precipitation, MM = Missing Value Source: NWS Daily Summary

Daily Weather History Graph

Daily Weather History Graph

Search for Another Location

Airport or City:

Trip Planner

Search our weather history database for the weather conditions in past years. The results will help you decide how hot, cold, wet, or windy it might be!

Date:

Astronomy

Oct. 30, 2013 Rise Set
Actual Time 7:32 AM EDT 6:07 PM EDT
Civil Twilight 7:04 AM EDT 6:35 PM EDT
Nautical Twilight 6:33 AM EDT 7:06 PM EDT
Astronomical Twilight 6:02 AM EDT 7:38 PM EDT
Moon 3:20 AM EDT 3:50 PM EDT
Length of Visible Light 11h 30m
Length of Day
10h 35m
Waning Crescent, 17% of the Moon is Illuminated
Oct 30
Waning Crescent
Nov 3
New
Nov 10
First Quarter
Nov 17
Full
Nov 25
Last Quarter

Hourly Weather History & Observations

Time (EDT) Temp. Windchill Dew Point Humidity Pressure Visibility Wind Dir Wind Speed Gust Speed Precip Events Conditions
12:54 AM 46.9 °F - 42.1 °F 83% 30.32 in 10.0 mi Calm Calm - N/A   Overcast
1:54 AM 46.0 °F - 42.1 °F 86% 30.31 in 10.0 mi Calm Calm - N/A   Mostly Cloudy
2:54 AM 46.9 °F - 43.0 °F 86% 30.29 in 10.0 mi Calm Calm - N/A   Overcast
3:54 AM 45.0 °F 43.5 °F 42.1 °F 90% 30.28 in 9.0 mi West 3.5 mph - N/A   Mostly Cloudy
4:54 AM 46.9 °F - 44.1 °F 90% 30.27 in 7.0 mi Calm Calm - N/A   Overcast
5:54 AM 46.9 °F - 45.0 °F 93% 30.28 in 5.0 mi Calm Calm - 0.00 in Rain Light Rain
6:07 AM 48.2 °F - 46.4 °F 93% 30.28 in 6.0 mi Calm Calm - 0.00 in   Overcast
6:38 AM 48.2 °F - 46.4 °F 93% 30.27 in 3.0 mi Calm Calm - 0.00 in Rain Light Rain
6:54 AM 50.0 °F - 48.0 °F 93% 30.28 in 4.0 mi Calm Calm - 0.01 in Rain Light Rain
7:27 AM 51.8 °F - 48.2 °F 88% 30.27 in 1.5 mi Calm Calm - 0.01 in Rain Rain
7:40 AM 51.8 °F - 50.0 °F 94% 30.27 in 2.0 mi SE 3.5 mph - 0.07 in Rain Light Rain
7:54 AM 51.1 °F - 50.0 °F 96% 30.28 in 2.0 mi Calm Calm - 0.07 in   Overcast
8:03 AM 51.8 °F - 50.0 °F 94% 30.28 in 1.5 mi Calm Calm - 0.01 in Rain Rain
8:54 AM 51.1 °F - 50.0 °F 96% 30.28 in 1.2 mi Calm Calm - 0.03 in   Overcast
9:13 AM 51.8 °F - 51.8 °F 100% 30.28 in 1.0 mi ESE 3.5 mph - N/A   Overcast
9:54 AM 52.0 °F - 51.1 °F 97% 30.28 in 1.2 mi Calm Calm - N/A   Overcast
10:54 AM 54.0 °F - 52.0 °F 93% 30.27 in 1.5 mi Calm Calm - N/A   Overcast
11:12 AM 55.4 °F - 53.6 °F 94% 30.26 in 2.0 mi SW 3.5 mph - N/A   Overcast
11:26 AM 55.4 °F - 53.6 °F 94% 30.26 in 3.0 mi Calm Calm - N/A   Mostly Cloudy
11:37 AM 55.4 °F - 51.8 °F 88% 30.25 in 4.0 mi SW 4.6 mph - N/A   Mostly Cloudy
11:45 AM 57.2 °F - 53.6 °F 88% 30.25 in 6.0 mi SW 5.8 mph - N/A   Haze
11:54 AM 57.9 °F - 53.1 °F 84% 30.25 in 6.0 mi SW 5.8 mph - N/A   Haze
11:58 AM 57.2 °F - 51.8 °F 82% 30.25 in 6.0 mi SSW 5.8 mph - N/A   Haze
12:46 PM 59.0 °F - 53.6 °F 82% 30.23 in 8.0 mi SSE 3.5 mph - N/A   Mostly Cloudy
12:54 PM 59.0 °F - 53.1 °F 81% 30.23 in 8.0 mi Calm Calm - N/A   Mostly Cloudy
1:27 PM 62.6 °F - 53.6 °F 72% 30.20 in 9.0 mi Variable 4.6 mph - N/A   Mostly Cloudy
1:54 PM 62.1 °F - 53.1 °F 72% 30.19 in 8.0 mi Calm Calm - N/A   Scattered Clouds
2:54 PM 63.0 °F - 53.1 °F 70% 30.17 in 10.0 mi ESE 5.8 mph - N/A   Mostly Cloudy
3:54 PM 64.0 °F - 54.0 °F 70% 30.16 in 10.0 mi ENE 12.7 mph 16.1 mph N/A   Scattered Clouds
4:54 PM 62.1 °F - 55.0 °F 78% 30.17 in 10.0 mi ESE 9.2 mph - N/A   Mostly Cloudy
5:54 PM 59.0 °F - 53.1 °F 81% 30.18 in 9.0 mi ESE 6.9 mph - N/A   Scattered Clouds
6:07 PM 57.2 °F - 53.6 °F 88% 30.18 in 9.0 mi East 8.1 mph - N/A   Mostly Cloudy
6:54 PM 57.9 °F - 54.0 °F 87% 30.20 in 9.0 mi East 5.8 mph - N/A   Overcast
7:54 PM 57.0 °F - 54.0 °F 89% 30.21 in 8.0 mi Calm Calm - N/A   Mostly Cloudy
8:04 PM 57.2 °F - 53.6 °F 88% 30.21 in 8.0 mi ESE 3.5 mph - N/A   Mostly Cloudy
8:54 PM 55.9 °F - 53.1 °F 90% 30.20 in 8.0 mi East 5.8 mph - N/A   Mostly Cloudy
9:54 PM 55.0 °F - 53.1 °F 93% 30.21 in 7.0 mi Calm Calm - N/A   Scattered Clouds
10:54 PM 53.1 °F - 52.0 °F 96% 30.21 in 5.0 mi Calm Calm - N/A   Scattered Clouds
11:54 PM 54.0 °F - 53.1 °F 97% 30.20 in 3.0 mi Calm Calm - N/A   Overcast